Tracking 19709 objects as of 19-Jun-2019
HD Live streaming from Space Station
objects crossing your sky now

THORAD AGENA D DEB

Track THORAD AGENA D DEB now!
10-day predictions


NORAD ID: 42519
Int'l Code: 1970-025RZ
Perigee: 959.1 km
Apogee: 988.9 km
Inclination: 99.5 °
Period: 104.4 minutes
Semi major axis: 7344 km
RCS: Unknown
Launch date: April 8, 1970
Source: United States (US)
Launch site: AIR FORCE WESTERN TEST RANGE (AFWTR)

Note: This is SATELLITE DEBRIS
aabbcc
Your satellite tracking list
Your tracking list is empty




NASA's NSSDC Master Catalog

Two Line Element Set (TLE):
1 42519U 70025RZ  16059.40509506 +.00000435 +00000-0 +46890-3 0  9997
2 42519 099.4908 128.7091 0020317 311.8612 048.0398 13.79161476620729
Source of the keplerian elements: AFSPC